STARLINK-1226 (45229 NORAD) Tracking and Keplerian Element Data

This shows tracking and keplerian element data for the satellite.

Feedback or suggestion? Click here.




ElementValue
Catalog45229
NameSTARLINK-1226
Epoch Orbit2236
Epoch Day189.91668981
Epoch Year2020
RAAN302.6671
Inclination53.0013
Eccentricity0.0001334
Argument of Perigee89.0471
Mean Anonmoly211.6405
Mean Motion15.05590066
Decay Rate-0.00030704
L11 45229U 20012BD 20189.91668981 -.00030704 00000-0 -20967-2 0 9997
L22 45229 53.0013 302.6671 0001334 89.0471 211.6405 15.05590066 22360

Live tracking and technical data element details for STARLINK-1226 (NORAD 45229). STARLINK-1226 can be tracked NOW for your location showing map with azimuth and elevation plus other details from your city location.

Track the satellite on the map from your city or location and see movement details for azimuth, elevation, latitude, longitude, range, height, and movement on the map or in text.







IsCatalogInMostPopularTable: catalog: 45229, numindb: 29
Update: records affected: 1



GetName: 45229 STARLINK-1226

Hit Count: updated at: Thu, 09 Jul 2020 00:54:59 GMT